Location: Newark
(49.2191°N, 12.6671°E)
Time: 23:29:57
(UTC+00:00)

Transit 2A - Pass Details

Date: 26 January 2020
Orbit: 600 x 959 km, 66.7° (Epoch: 19 February)

Event Time Altitude Azimuth Distance (km) Brightness Sun altitude
Rises 18:59:22 0° 210° (SSW) 2,886 9.3 -29.9°
Reaches altitude 10° 19:01:38 10° 209° (SSW) 1,960 8.3 -30.2°
Enters shadow 19:02:07 13° 209° (SSW) 1,766 8.1 -30.3°
